Dewpoint
54 55 55 56 56 57 57 58 58 58 58 58 59 59 59 59 59 59 58 58 59 60 61 60 60 58 59 58 59 59 50 29 28 27 26 31 43 56 57 58 58 60 53 36 33 22 18 21 21 27 15 19 23 26 27 27 29 28 22 19 18 17 14 17 12 16 18 20 20 22 31 28 24 27 30 28 29 32 32 31 32 34 33 32 32 33 36 37
55 55 55 56 56 57 57 58 58 58 58 59 59 59 59 59 59 59 59 59 61 61 60 61 60 59 57 58 59 56 39 32 25 26 28 41 54 57 58 57 58 59 51 34 33 25 18 19 22 19 14 16 25 22 27 26 26 23 19 17 13 16 18 21 16 18 19 18 23 26 27 29 27 29 29 24 25 28 28 28 32 29 30 32 33 33 34 34
55 55 55 56 57 57 57 58 58 58 58 59 59 59 59 59 59 60 59 60 61 60 59 60 60 60 58 57 56 50 38 23 21 21 23 54 59 58 56 59 60 54 36 33 35 29 23 21 26 18 18 13 18 22 25 24 29 25 21 20 20 20 17 20 20 23 20 20 21 23 27 29 27 27 29 29 26 27 26 25 25 26 23 23 24 28 31 34
54 55 55 56 57 57 58 58 58 58 58 59 59 59 59 58 59 60 60 60 60 59 58 60 61 59 58 57 58 40 27 20 16 20 25 52 58 55 56 60 57 49 42 40 38 35 30 21 21 18 21 18 20 21 22 22 22 24 23 22 22 24 20 19 21 20 22 27 22 24 26 24 25 28 29 30 25 25 26 29 28 25 24 26 27 28 30 32
55 55 56 56 56 57 57 57 58 58 58 59 59 59 59 59 59 60 61 60 60 61 60 60 61 60 58 56 46 34 24 12 14 23 24 55 56 55 56 59 55 43 41 38 29 24 20 18 18 22 21 16 25 21 22 23 23 25 22 24 21 22 19 21 23 22 22 25 25 25 23 24 28 27 30 30 26 23 25 26 30 30 29 29 28 29 30 30
54 55 55 56 56 56 57 57 57 58 58 58 59 59 60 59 60 60 60 60 61 61 61 61 60 60 59 55 35 31 20 1 20 23 50 53 53 53 56 57 54 37 33 27 25 23 20 20 15 21 20 15 15 16 15 22 26 21 24 22 22 21 19 22 24 25 24 24 23 24 25 25 25 26 26 30 28 28 30 31 31 31 31 31 31 30 27 28
54 55 55 55 56 56 56 56 57 58 58 59 59 60 59 59 60 60 60 60 60 61 60 60 60 59 57 51 36 26 22 21 22 27 46 52 52 50 52 46 49 37 33 26 25 23 23 20 19 22 23 24 21 18 25 30 27 25 22 25 24 24 22 24 25 26 26 25 24 24 27 25 26 25 27 25 26 31 31 30 29 29 29 28 26 26 27 27
54 55 55 55 56 56 56 56 58 58 59 59 59 59 59 60 60 60 60 61 61 60 60 59 59 58 50 34 28 26 25 24 25 34 45 49 37 38 44 37 34 32 28 27 26 23 23 22 19 25 22 20 22 25 28 26 28 26 25 26 26 24 24 26 27 26 24 23 26 25 24 24 25 23 25 22 22 22 22 24 25 25 25 26 26 27 27 27
54 55 55 55 56 56 56 57 58 58 58 58 59 59 59 60 60 60 60 58 60 60 59 59 59 57 50 34 29 23 22 24 26 30 33 30 30 34 35 26 34 27 28 28 26 25 22 25 27 23 22 23 25 26 27 23 21 26 26 28 28 26 26 26 21 22 23 23 25 23 22 24 23 26 23 21 21 21 23 20 21 22 24 25 27 27 27 27
54 55 55 55 55 56 57 57 58 58 57 58 58 59 60 60 60 60 57 58 58 60 59 60 57 51 38 31 27 18 21 27 28 32 31 29 28 31 30 34 30 29 29 29 29 27 26 25 24 24 24 24 28 27 28 25 23 27 28 29 28 27 23 24 22 22 23 23 24 23 23 22 22 20 16 19 21 23 20 20 21 22 23 24 26 27 26 26
55 55 55 55 56 56 57 57 57 57 58 58 59 60 59 60 60 60 60 61 60 60 59 57 55 40 30 28 23 20 25 27 32 32 29 29 27 26 25 29 29 28 29 29 29 28 27 26 28 26 27 23 28 25 28 26 28 28 27 26 24 20 23 22 20 21 23 21 24 24 23 22 17 20 17 19 22 21 19 20 21 21 21 22 22 23 23 24
55 55 55 55 56 56 57 57 57 58 59 59 59 60 59 59 59 59 59 59 59 58 59 55 47 33 30 26 23 22 26 28 33 31 27 27 27 29 31 33 29 28 28 28 28 30 28 30 32 30 22 27 24 26 26 29 29 28 24 19 22 19 21 15 21 22 24 19 24 25 11 9 15 17 19 21 21 19 19 19 19 19 19 19 20 19 19 20
55 54 55 55 56 57 57 57 57 58 58 58 59 59 59 58 57 58 58 59 57 59 55 54 44 38 34 26 23 26 30 31 33 27 25 27 26 30 33 31 29 29 29 27 30 34 35 35 35 31 32 27 26 17 25 26 25 25 23 20 20 16 17 13 24 24 19 19 26 23 2 10 13 19 20 20 20 19 18 17 17 17 17 17 17 17 16 17
54 54 55 56 56 57 57 57 58 58 59 59 59 58 58 57 57 57 57 58 58 58 57 54 40 35 28 22 24 30 32 36 25 23 24 27 26 26 27 28 28 27 29 33 35 38 37 35 31 30 33 27 23 29 23 22 24 16 22 20 15 9 5 12 26 23 16 21 24 23 9 15 15 19 19 19 18 18 17 16 16 16 15 15 16 15 14 14
54 55 55 56 56 56 57 57 58 59 58 58 58 58 58 57 56 57 57 57 56 59 56 51 37 34 25 22 25 27 49 25 23 24 25 25 25 27 27 27 27 28 29 31 34 37 35 34 30 28 25 30 29 24 20 21 20 22 17 11 16 14 12 17 25 24 19 21 24 20 13 13 16 19 18 18 19 17 16 15 15 15 15 14 14 13 13 13
54 55 55 56 55 56 57 57 58 56 57 57 57 58 57 56 57 58 57 55 56 57 41 33 35 29 23 19 17 35 24 22 22 24 23 27 25 28 28 27 28 28 28 28 33 31 30 28 26 26 28 28 24 20 14 17 18 20 14 5 14 15 14 13 16 27 25 23 23 18 10 21 12 19 18 18 18 17 15 15 15 14 14 14 14 14 13 13
55 55 56 56 55 56 57 57 55 56 56 57 57 56 55 55 57 57 55 50 45 46 28 28 31 33 16 21 22 21 21 23 25 23 20 27 28 29 28 27 26 26 29 28 25 27 24 21 23 17 26 25 26 19 10 10 12 14 21 16 17 14 17 9 17 26 24 23 21 22 21 22 19 18 18 18 18 16 15 15 14 14 14 14 14 13 13 13
55 55 56 56 55 57 57 56 56 56 56 57 56 56 45 52 51 47 41 43 42 38 36 36 33 22 19 19 19 20 22 23 26 24 22 25 30 30 28 26 27 24 27 24 21 18 23 18 23 12 17 20 24 21 9 -2 9 14 19 21 21 21 20 16 16 17 23 24 20 19 22 20 18 17 18 18 18 16 15 15 14 14 14 13 13 13 13 13
55 56 56 56 56 57 57 57 55 56 56 55 54 57 53 50 41 31 31 33 32 26 24 25 24 15 13 16 19 22 23 25 27 16 17 22 27 30 30 29 27 24 24 16 18 21 24 21 18 13 14 19 21 24 19 17 16 20 21 21 21 20 18 15 18 23 24 20 20 19 17 19 17 17 18 18 17 16 15 15 14 14 13 13 13 13 13 14
55 56 56 56 56 57 57 56 55 56 54 44 37 36 38 30 30 25 29 31 24 24 25 25 25 24 21 22 21 23 25 20 13 13 18 23 28 22 21 26 27 25 27 17 24 21 25 17 18 15 19 21 23 24 25 25 24 25 23 22 24 23 22 22 21 23 25 21 20 21 21 18 17 17 17 18 16 15 14 14 14 14 14 14 13 13 14 14
55 55 55 55 56 56 57 55 55 55 52 39 38 33 24 24 23 19 22 25 27 30 26 26 26 24 21 22 23 25 20 15 15 12 18 25 27 18 19 26 23 17 21 25 21 24 23 14 19 21 21 22 24 25 25 26 25 26 25 22 22 20 14 14 15 22 25 19 19 21 18 18 17 17 17 17 16 15 14 13 13 13 13 13 14 14 14 14
55 55 55 55 56 57 57 55 55 53 46 38 35 29 27 27 27 28 25 15 24 29 27 26 27 21 22 24 24 26 22 15 10 12 18 26 25 16 22 23 22 19 23 21 17 16 17 18 21 24 24 24 23 25 25 25 24 25 21 18 14 13 14 17 19 23 23 20 18 21 19 17 17 18 18 17 16 16 15 14 13 12 12 13 13 14 14 14
54 55 55 56 56 57 57 56 55 48 38 35 33 33 33 37 40 38 29 22 17 22 27 25 21 20 20 22 23 24 12 13 15 12 18 26 26 25 24 20 22 24 25 20 6 8 9 14 22 25 25 24 23 21 21 21 23 17 15 12 11 13 14 13 15 21 22 18 17 21 19 16 17 18 19 19 16 16 17 14 13 14 12 12 13 14 14 13
54 55 55 56 56 57 55 55 50 40 37 35 35 33 36 38 39 37 25 19 12 14 26 25 22 20 21 19 22 21 13 17 17 12 20 24 25 25 25 22 18 21 23 22 15 13 11 19 25 21 18 14 10 16 19 16 13 14 16 12 12 15 16 15 14 18 20 21 22 18 14 10 11 11 17 19 19 16 15 12 10 9 12 13 14 14 14 14
54 55 55 56 57 56 55 50 40 34 35 32 35 37 37 39 40 32 24 20 16 10 26 18 24 17 20 25 25 23 24 21 19 19 23 23 25 25 21 25 20 12 22 24 20 18 16 20 25 19 17 14 12 14 19 15 14 14 14 13 12 15 17 17 18 17 9 7 17 16 10 4 10 16 17 18 16 14 13 12 11 10 8 11 9 11 14 14
54 55 55 56 55 55 55 37 33 36 34 29 31 39 37 38 41 33 19 15 -5 5 17 13 18 12 19 16 21 24 23 13 17 16 32 24 28 24 24 16 19 10 18 19 15 14 14 20 19 17 16 14 11 11 17 18 15 9 9 15 15 18 18 17 15 16 7 2 10 19 9 3 9 13 17 18 14 12 12 11 11 10 8 10 10 10 13 12
54 55 56 55 54 53 36 30 33 35 32 38 42 39 40 41 39 37 25 9 1 6 7 17 17 11 24 19 22 20 7 8 12 21 17 23 23 25 18 14 18 23 25 22 19 -1 21 18 23 20 16 14 9 12 15 18 13 10 10 19 19 17 16 15 15 13 11 15 15 18 6 2 5 10 17 18 13 11 12 11 10 10 9 9 10 11 13 13
54 55 55 55 53 47 32 33 30 31 32 37 40 39 39 40 38 31 17 -7 -15 16 10 17 14 22 21 22 20 11 10 16 11 8 23 24 22 22 20 14 10 10 16 17 1 9 13 17 21 19 14 10 8 13 16 21 13 12 15 19 18 18 17 17 16 17 18 4 2 1 14 -0 -2 10 15 15 11 10 10 13 10 11 11 10 12 12 13 13
55 55 55 54 53 50 37 32 35 37 38 38 37 39 39 34 30 22 12 -8 -11 12 18 16 20 15 20 24 19 21 20 21 12 15 23 23 21 19 8 15 16 16 17 14 5 10 10 20 19 21 13 12 14 18 20 21 12 16 20 18 18 20 21 20 18 16 8 0 -3 -1 7 3 2 4 12 14 10 9 10 13 11 12 12 11 13 12 14 13
55 55 55 53 44 39 41 36 35 38 39 38 37 37 32 32 19 15 -2 -16 -0 -6 15 15 19 12 21 17 17 19 14 16 21 21 21 15 16 22 21 22 16 13 9 17 11 8 10 28 27 24 18 16 22 21 21 21 18 22 17 12 10 7 12 14 7 0 -3 -13 -0 -1 3 4 1 5 11 11 10 10 11 12 12 12 12 12 13 12 15 13
51 51 51 49 34 32 31 28 34 39 39 39 37 32 28 18 12 0 -14 -8 16 14 20 17 16 21 17 13 8 17 20 19 16 20 15 20 17 19 18 13 19 14 14 15 14 12 12 16 17 21 30 23 22 17 21 21 23 18 14 11 5 -1 4 8 6 2 -11 -8 -7 -5 6 4 1 4 12 11 12 13 10 11 11 11 11 13 13 13 15 12
48 47 48 42 40 33 29 26 31 39 38 37 30 26 21 1 14 4 -3 17 -7 5 6 10 19 17 14 15 9 12 14 14 15 18 13 16 16 16 17 12 11 1 4 6 8 13 7 3 6 12 26 18 17 11 13 13 14 16 13 12 3 0 1 -8 -2 -4 -9 -7 -4 -1 5 4 4 7 14 11 10 11 11 14 12 13 11 13 11 10 13 11
50 48 47 43 44 38 35 34 39 40 36 35 25 18 15 9 -11 -4 -0 9 -2 12 10 20 19 16 12 10 6 10 16 8 15 12 17 15 17 16 17 18 17 1 -2 4 3 8 8 11 7 7 14 22 12 7 9 6 9 15 12 7 3 0 -4 -7 -4 -9 -6 -2 1 3 4 5 6 11 15 14 11 12 14 14 14 13 13 13 10 11 11 12
50 49 33 39 38 39 41 40 38 38 29 33 21 22 14 4 -16 25 3 10 8 17 20 17 16 8 6 3 5 14 7 8 8 6 17 10 14 12 15 16 18 16 9 8 4 3 2 3 7 7 4 13 14 13 14 11 13 14 14 10 1 2 -2 -3 -9 -3 -0 2 5 5 5 -1 3 7 15 12 13 13 13 14 14 15 15 15 10 11 9 10
46 39 37 33 33 35 41 37 40 37 26 19 14 16 3 -12 -6 -6 -1 9 16 19 17 18 6 6 4 10 10 11 7 7 10 8 12 10 11 15 14 15 19 17 13 8 2 0 1 -1 4 9 9 16 12 18 18 17 10 16 17 14 11 7 8 1 3 0 3 8 8 5 3 4 7 13 20 14 14 12 14 14 16 14 12 12 12 11 10 10
41 30 32 27 30 25 37 38 30 25 21 10 11 11 2 -5 1 7 8 16 18 16 18 9 9 8 7 9 12 10 11 7 12 6 3 14 15 13 15 17 18 19 16 5 -1 0 8 -2 2 13 12 13 16 20 11 15 -2 4 8 5 10 15 13 4 8 10 7 0 5 3 7 8 13 11 13 13 13 13 14 15 13 12 12 12 12 11 10 10
32 34 26 26 26 27 35 33 33 24 17 11 13 3 5 9 12 11 28 21 20 20 11 6 3 7 3 4 5 9 11 10 8 0 -3 8 4 14 15 17 19 20 19 15 7 3 2 3 12 10 5 7 20 17 19 21 14 12 5 13 16 16 14 8 2 -0 -1 0 0 3 5 6 5 3 12 12 12 13 13 11 10 11 12 12 10 10 9 8
33 31 28 24 24 30 36 34 27 22 18 13 17 23 16 14 19 18 20 21 21 18 9 2 -1 9 1 3 7 8 14 11 8 6 -1 2 0 13 15 17 17 21 21 19 10 10 11 5 7 10 9 9 10 5 6 11 18 13 12 18 10 3 4 9 -2 -2 -1 1 3 4 6 6 5 7 12 12 12 12 10 8 9 11 12 10 8 8 7 7
30 25 14 21 26 31 34 28 22 16 12 17 9 22 19 17 19 21 22 22 20 16 12 10 -1 4 8 5 7 10 11 8 9 8 -2 2 -2 9 16 17 17 21 21 20 15 18 11 1 7 7 9 9 3 6 5 7 10 14 16 13 14 10 2 4 4 4 2 4 3 3 5 1 5 12 11 10 11 10 7 7 9 12 10 8 8 7 6 7
24 16 5 18 27 31 31 24 22 18 14 13 8 10 18 20 22 25 22 24 21 11 10 11 14 3 8 10 9 5 13 14 15 11 4 5 3 18 21 22 20 22 21 19 15 18 13 6 -2 3 10 5 5 8 7 6 5 11 10 7 10 4 11 10 3 5 6 5 6 5 2 2 9 14 11 11 10 8 7 7 11 11 9 8 6 6 6 7
25 16 7 23 26 29 28 23 19 20 18 16 19 18 22 20 22 24 23 23 26 24 15 14 16 9 9 11 6 14 14 16 15 9 10 5 5 4 18 24 23 21 21 16 16 15 6 10 4 9 4 0 4 11 11 14 13 12 11 8 11 2 6 5 5 5 6 5 4 4 2 6 11 13 8 12 7 8 6 9 11 12 8 6 5 5 6 9
19 9 10 22 26 28 21 17 15 21 21 15 11 22 24 33 18 18 21 23 22 20 19 19 18 16 16 15 10 15 17 11 14 7 8 5 11 17 15 20 24 23 18 12 12 16 15 12 12 7 4 4 11 15 15 14 12 12 11 10 9 1 -2 3 4 7 10 9 7 9 6 4 15 15 13 8 7 6 7 11 11 8 5 4 5 6 8 9
10 3 17 26 26 22 15 13 20 22 16 21 24 20 20 19 17 18 20 21 19 20 17 17 17 12 14 18 19 18 17 7 12 8 10 13 13 19 21 23 24 22 21 12 12 18 26 2 1 1 3 13 16 17 17 14 12 11 11 11 8 3 1 3 8 10 9 6 3 3 1 1 12 16 8 8 8 6 8 10 8 5 4 4 6 7 7 9
10 6 15 25 26 28 15 6 9 11 15 19 16 17 18 21 21 20 20 21 19 18 16 17 16 18 16 20 20 13 16 -3 2 7 9 13 13 21 22 21 24 24 16 14 11 21 -1 5 6 -3 -3 -3 -5 4 5 14 14 11 8 10 7 4 3 3 5 2 3 5 4 3 -2 0 7 6 7 7 5 3 8 8 5 3 4 6 6 7 9 10
10 16 20 20 23 19 10 17 17 16 20 12 11 10 13 17 20 22 20 21 23 20 13 12 18 19 19 20 18 20 20 6 6 9 8 9 13 19 19 21 22 23 26 27 28 25 9 11 2 -5 -6 -5 -9 -8 -3 8 12 13 9 7 6 4 5 7 5 6 3 6 6 4 1 3 5 6 7 5 1 5 7 5 4 4 5 6 7 8 10 9
12 3 12 13 16 21 21 21 18 16 11 7 11 10 11 12 13 18 22 23 22 22 20 18 19 19 17 16 15 17 13 14 6 4 9 6 9 14 20 23 22 22 28 28 23 16 8 12 6 4 -2 1 3 5 8 17 13 11 8 5 5 5 6 11 11 7 5 6 6 6 6 5 5 7 5 1 2 6 4 3 3 4 6 7 8 9 10 10
16 17 5 0 18 15 17 20 21 19 10 16 10 10 5 14 12 11 21 15 20 21 21 19 19 12 13 17 16 12 12 12 7 12 9 7 8 12 21 22 22 25 27 26 23 5 -1 3 5 9 8 11 11 11 13 16 13 13 9 6 5 5 8 10 8 5 10 8 1 4 6 7 6 4 1 -0 3 4 3 3 4 5 6 8 8 9 14 10
14 9 16 16 12 -1 16 12 21 19 21 19 8 14 13 11 13 7 13 19 21 20 15 3 14 19 18 17 13 5 10 8 7 1 8 9 10 15 14 16 21 24 25 20 15 7 -0 -1 4 8 10 13 14 14 14 14 14 13 10 7 6 7 9 10 10 10 10 8 5 6 7 4 3 1 0 3 3 2 3 4 5 7 8 8 9 9 9 9
17 17 20 22 12 14 16 12 22 21 21 22 20 14 10 10 9 15 13 17 7 8 12 3 9 17 20 20 17 8 13 4 6 4 6 8 11 13 7 8 20 22 18 14 15 3 3 2 7 4 12 13 13 13 13 13 11 10 4 9 10 10 10 12 12 12 11 9 8 6 3 2 1 -0 3 3 3 3 4 5 7 7 8 9 9 9 9 10
12 13 9 19 22 19 16 15 19 18 16 20 12 12 14 15 12 16 18 12 4 7 17 13 14 19 21 21 18 8 11 10 9 7 9 13 14 9 7 7 12 17 17 14 12 13 10 7 13 6 7 7 9 10 9 9 7 7 9 10 11 12 13 12 12 10 9 5 3 2 2 0 1 3 3 4 4 5 6 6 6 6 8 8 9 9 9 10
19 20 18 14 14 14 20 15 16 18 15 18 12 13 20 16 14 17 15 15 11 13 18 15 17 20 20 20 21 19 20 16 16 15 15 16 13 16 8 9 20 15 14 12 8 10 11 9 4 0 5 0 7 6 7 6 9 8 9 12 13 12 11 10 8 8 4 2 1 1 -1 0 3 3 4 4 5 5 5 4 5 6 7 8 8 9 10 11
17 17 23 21 12 18 12 14 18 17 8 12 18 21 17 18 18 20 14 18 21 21 20 20 20 19 17 13 10 17 18 19 20 22 23 22 23 23 24 22 20 18 9 8 8 13 6 7 10 6 7 -1 4 7 5 4 3 -7 -2 13 12 11 10 7 5 4 2 1 1 -1 -1 2 2 4 4 5 5 5 3 3 5 6 7 7 9 10 10 12